Location: *
(33.8649°S, 62.1526°E)
Time: 12:03:01
(UTC+00:00)

S3M - Pass Details

Date: 17 January 2021
Orbit: 949 x 1004 km, 83.0° (Epoch: 02 March)

Event Time Altitude Azimuth Distance (km) Brightness Sun altitude
Exits shadow 17:17:06 24° 345° (NNW) 1,874 5.2 -22.9°
Maximum altitude 17:20:59 74° 263° (W) 1,016 4.1 -23.5°
Drops below altitude 10° 17:27:18 10° 178° (S) 2,756 7.0 -24.3°
Sets 17:29:52 0° 176° (S) 3,719 7.7 -24.6°
